{"data":{"norad_id":39613,"epoch":"2026-09-20T03:30:04.081248Z","epoch_age_seconds":52394,"freshness":"FRESH","line1":"1 39613U 14010B   26263.14588057  .00000074  00000+0  00000+0 0  9994","line2":"2 39613   0.0154 220.3531 0000337 270.6592 336.5660  1.00273277 45450","mean_motion":1.00273277,"eccentricity":3.37e-5,"inclination_deg":0.0154,"raan_deg":220.3531,"arg_perigee_deg":270.6592,"mean_anomaly_deg":336.566,"bstar":0,"rev_number":4545,"period_min":1436.0755358579,"perigee_km":35784.755767244,"apogee_km":35787.597641988,"semimajor_km":42164.313704616,"source":"CELESTRAK","updated_at":"2026-09-20T09:00:35.209847Z"}}